GONETS M 11 (M21)

导读

GONETS M 11(也称为GONETS M 21)是由独联体(CIS)发射的低轨通信卫星,隶属于俄罗斯GONETS-M系列低轨通信卫星星座,于2015年3月31日08:00发射入轨。该卫星主要提供中低速率通信服务,支持短信传输、遥测采集、远程终端控制等功能,服务覆盖偏远地区通信、应急保障等场景,运行在倾角约82.5°的近地轨道,为俄罗斯及周边区域提供稳定的天基通信支撑,是俄罗斯地面通信网络的重要补充。

Basic Information
目录编号:
40552
目录名称:
GONETS M 11 (M21)
国际标识:
2015-020A
轨道中心:
EARTH
卫星名称:
GONETS M 11 (M21)
卫星全名:
--
卫星状态:
在轨 (已飞行4123 天)
发射日期:
2015-03-31 UTC
国别 :
俄罗斯(独联体) (CIS)
星等 :
--
Orbit Information
数据来源 国际轨道数据 AOE轨道数据
星历时间 2026-07-14T05:28:09+0800
7小时前
查看轨道信息
2026-07-13T15:00:00+0800
22小时前
查看轨道信息
半长轴 7872.561km 7872.563km
偏心率 0.0015439 0.001536
轨道倾角 82.486° 82.487°
近地点辐角 306.320° 307.554°
升交点赤经 14.347° 14.722°
平近点角 53.645° 236.238°
近地点 1482.269km 1482.333km
远地点 1506.579km 1506.519km
周期 115.860分钟 115.860分钟
每日圈数 12.428786 12.428782
Detailed Information
使用方式:
暂无
2D Orbit Map
3D Orbit Map
Orbit Altitude Analysis Chart
Orbit Inclination Analysis Chart
Orbit Comprehensive Analysis Chart
View Comprehensive Chart